Home   Weather   Gummersbach   Past weeks

Flag for Germany Past Weather in Gummersbach, North Rhine-Westphalia, Germany — Yesterday and Last 2 Weeks

52 °F

Drizzle. Partly sunny.

Feels Like: 49 °F
Forecast: 38 / 50 °F
Wind: 9 mph from Northwest

Location: Koeln / Bonn

Current Time: Oct 25, 2016 at 8:57:04 AM

Latest Report: Oct 25, 2016 at 8:20 AM

Visibility: 3 mi

Pressure: 30.12 "Hg

Humidity: 94%

Dew Point: 50 °F

Location of GummersbachLocation

Past Weather in Gummersbach — Graph


Gummersbach Temperature Yesterday

Maximum temperature yesterday: 54 °F (at 3:20 PM)
Minimum temperature yesterday: 43 °F (at 12:20 AM)
Average temperature yesterday: 49 °F

High & Low Weather Summary for the Past Weeks

High68 °F (Oct 16, 3:50 PM)100% (Oct 10, 7:20 AM)30.24 "Hg (Oct 10, 7:20 AM)
Low30 °F (Oct 11, 7:50 AM)49% (Oct 16, 3:20 PM)29.68 "Hg (Oct 14, 6:20 PM)
Average49 °F86%30.00 "Hg
* Reported Oct 10 7:20 AM — Oct 25 7:20 AM, Gummersbach, Weather by CustomWeather, © 2016

Note: Actual official high and low records may vary slightly from our data, if they occured in-between our weather recording intervals... More about our weather records


Gummersbach Weather History for the Previous 24 Hours

Scroll right to see more
Time TempWeatherWind HumidityBarometerVisibility
7:20 AM
Tue, Oct 25
52 °FPartly cloudy.6 mph94%30.09 "Hg4 mi
6:50 AM52 °FPartly cloudy.6 mph94%30.09 "Hg4 mi
6:20 AM52 °FPassing clouds.7 mph94%30.07 "Hg4 mi
5:50 AM52 °FPassing clouds.8 mph94%30.07 "Hg4 mi
5:20 AM52 °FPartly cloudy.5 mph100%30.04 "Hg4 mi
4:50 AM52 °FMostly cloudy.5 mph100%30.04 "Hg4 mi
4:20 AM52 °FLow clouds.5 mph100%30.04 "Hg4 mi
3:50 AM52 °FLow clouds.2 mph100%30.04 "Hg5 mi
3:20 AM52 °FLow clouds.2 mph100%30.04 "Hg5 mi
2:50 AM52 °FPassing clouds.1 mph100%30.01 "HgN/A
2:20 AM52 °FLight rain. Partly cloudy.2 mph100%30.01 "HgN/A
1:50 AM52 °FLight rain. Passing clouds.3 mph100%29.98 "Hg4 mi
1:20 AM52 °FLight rain. Partly cloudy.2 mph100%29.98 "Hg5 mi
12:50 AM52 °FLight rain. Partly cloudy.1 mph100%30.01 "Hg5 mi
12:20 AM52 °FLight rain. Partly cloudy.3 mph100%29.98 "Hg5 mi
11:50 PM
Mon, Oct 24
52 °FLight rain. Passing clouds.5 mph100%29.98 "Hg5 mi
11:20 PM52 °FLight rain. Partly cloudy.5 mph100%29.98 "Hg4 mi
10:50 PM52 °FLight rain. Passing clouds.2 mph100%29.98 "Hg4 mi
10:20 PM52 °FRain. Passing clouds.2 mph100%29.95 "Hg4 mi
9:50 PM52 °FLight rain. Partly cloudy.No wind100%29.95 "HgN/A
9:20 PM52 °FLight rain. Passing clouds.2 mph100%29.95 "HgN/A
8:50 PM52 °FLight rain. Partly cloudy.5 mph100%29.95 "HgN/A
8:20 PM52 °FRain. Mostly cloudy.3 mph100%29.92 "Hg6 mi
7:50 PM52 °FRain. Passing clouds.2 mph100%29.95 "Hg4 mi
7:20 PM52 °FLight rain. Passing clouds.No wind100%29.95 "Hg5 mi
6:50 PM52 °FLight rain. Passing clouds.No wind100%29.92 "HgN/A
6:20 PM54 °FLight rain. Passing clouds.1 mph94%29.92 "HgN/A
5:50 PM54 °FLight rain. Partly sunny.2 mph94%29.92 "HgN/A
5:20 PM54 °FPartly sunny.3 mph94%29.92 "HgN/A
4:50 PM54 °FLight rain. Partly sunny.3 mph94%29.89 "HgN/A
4:20 PM54 °FLight rain. Mostly cloudy.3 mph94%29.89 "HgN/A
3:50 PM52 °FLight rain. Broken clouds.5 mph100%29.89 "HgN/A
3:20 PM54 °FLight rain. Broken clouds.7 mph94%29.89 "HgN/A
2:50 PM52 °FLight rain. More clouds than sun.8 mph94%29.86 "HgN/A
2:20 PM52 °FLight rain. Partly sunny.7 mph94%29.89 "HgN/A
1:50 PM52 °FLight rain. Mostly cloudy.3 mph94%29.89 "HgN/A
1:20 PM50 °FLight rain. More clouds than sun.5 mph100%29.89 "HgN/A
12:50 PM50 °FLight rain. More clouds than sun.6 mph94%29.86 "Hg4 mi
12:20 PM48 °FLight rain. Mostly cloudy.7 mph100%29.89 "Hg4 mi
11:50 AM48 °FLight rain. Mostly cloudy.5 mph100%29.89 "Hg4 mi
11:20 AM48 °FLight rain. Cloudy.6 mph94%29.89 "Hg4 mi
10:50 AM48 °FLight rain. Mostly cloudy.6 mph94%29.89 "Hg4 mi
10:20 AM48 °FLight rain. Partly sunny.5 mph87%29.92 "HgN/A
9:50 AM48 °FPartly sunny.5 mph87%29.92 "HgN/A
9:20 AM48 °FPartly sunny.5 mph87%29.89 "HgN/A
8:50 AM48 °FPartly sunny.6 mph87%29.89 "HgN/A
8:20 AM48 °FPartly sunny.7 mph87%29.89 "HgN/A
Weather by CustomWeather, © 2016

See weather overviewHow to use our weather pages